Time,TemperatureF,DewpointF,PressureIn,WindDirection,WindDirectionDegrees,WindSpeedMPH,WindSpeedGustMPH,Humidity,HourlyPrecipIn,Conditions,Clouds,dailyrainin,SoftwareType,DateUTC
2013-05-11 00:00:00,62.1,-39.6,29.71,West,270,4.2,-999.0,1,-99.99,,,0.00,Acu-Link.com,2013-05-11 04:00:00,
2013-05-11 00:15:00,62.1,7.0,29.71,SW,225,4.2,-999.0,11,-99.99,,,0.00,Acu-Link.com,2013-05-11 04:15:00,
2013-05-11 00:31:00,62.1,19.4,29.72,SW,225,3.7,-999.0,19,-99.99,,,0.00,Acu-Link.com,2013-05-11 04:31:00,
2013-05-11 00:46:00,62.2,25.0,29.72,West,270,4.7,-999.0,24,-99.99,,,0.00,Acu-Link.com,2013-05-11 04:46:00,
2013-05-11 01:01:00,62.1,25.9,29.71,SW,225,4.7,-999.0,25,-99.99,,,0.02,Acu-Link.com,2013-05-11 05:01:00,
2013-05-11 01:16:00,61.9,26.6,29.72,WNW,292,2.7,-999.0,26,-99.99,,,0.02,Acu-Link.com,2013-05-11 05:16:00,
2013-05-11 01:50:00,59.7,43.0,29.73,West,270,6.8,-999.0,54,-99.99,,,0.02,Acu-Link.com,2013-05-11 05:50:00,
2013-05-11 02:05:00,58.5,51.7,29.72,NNW,337,4.7,-999.0,78,-99.99,,,0.02,Acu-Link.com,2013-05-11 06:05:00,
2013-05-11 02:20:00,57.7,54.2,29.72,ENE,67,5.3,-999.0,88,-99.99,,,0.02,Acu-Link.com,2013-05-11 06:20:00,
2013-05-11 02:35:00,57.4,54.2,29.73,WNW,292,3.2,-999.0,89,-99.99,,,0.02,Acu-Link.com,2013-05-11 06:35:00,
2013-05-11 02:51:00,56.8,52.7,29.73,NW,315,2.2,-999.0,86,-99.99,,,0.02,Acu-Link.com,2013-05-11 06:51:00,
2013-05-11 03:21:00,56.3,51.2,29.72,North,0,2.2,-999.0,83,-99.99,,,0.02,Acu-Link.com,2013-05-11 07:21:00,
2013-05-11 03:36:00,55.9,50.5,29.72,SE,135,1.1,-999.0,82,-99.99,,,0.02,Acu-Link.com,2013-05-11 07:36:00,
2013-05-11 03:51:00,55.8,49.7,29.72,East,90,3.7,-999.0,80,-99.99,,,0.02,Acu-Link.com,2013-05-11 07:51:00,
2013-05-11 04:06:00,55.4,47.3,29.72,West,270,4.2,-999.0,74,-99.99,,,0.02,Acu-Link.com,2013-05-11 08:06:00,
2013-05-11 04:22:00,55.4,46.5,29.72,NNE,22,0.0,-999.0,72,-99.99,,,0.02,Acu-Link.com,2013-05-11 08:22:00,
2013-05-11 04:37:00,55.0,43.0,29.73,WSW,247,4.2,-999.0,64,-99.99,,,0.02,Acu-Link.com,2013-05-11 08:37:00,
2013-05-11 04:53:00,54.9,43.8,29.72,SW,225,2.7,-999.0,66,-99.99,,,0.02,Acu-Link.com,2013-05-11 08:53:00,
2013-05-11 05:08:00,54.7,44.0,29.72,SW,225,2.2,-999.0,67,-99.99,,,0.02,Acu-Link.com,2013-05-11 09:08:00,
2013-05-11 05:23:00,54.7,46.6,29.73,NNW,337,2.7,-999.0,74,-99.99,,,0.02,Acu-Link.com,2013-05-11 09:23:00,
2013-05-11 05:38:00,54.3,47.2,29.73,NNE,22,4.2,-999.0,77,-99.99,,,0.02,Acu-Link.com,2013-05-11 09:38:00,
2013-05-11 05:53:00,54.0,45.9,29.73,NNW,337,2.7,-999.0,74,-99.99,,,0.02,Acu-Link.com,2013-05-11 09:53:00,
2013-05-11 06:08:00,53.1,43.9,29.75,North,0,4.2,-999.0,71,-99.99,,,0.02,Acu-Link.com,2013-05-11 10:08:00,
2013-05-11 06:23:00,52.7,41.7,29.75,WSW,247,2.2,-999.0,66,-99.99,,,0.02,Acu-Link.com,2013-05-11 10:23:00,
2013-05-11 06:38:00,52.2,38.3,29.75,NE,45,2.7,-999.0,59,-99.99,,,0.03,Acu-Link.com,2013-05-11 10:38:00,
2013-05-11 06:54:00,51.8,35.7,29.76,North,0,1.7,-999.0,54,-99.99,,,0.03,Acu-Link.com,2013-05-11 10:54:00,
2013-05-11 07:09:00,51.4,34.8,29.75,West,270,2.2,-999.0,53,-99.99,,,0.03,Acu-Link.com,2013-05-11 11:09:00,
2013-05-11 07:24:00,51.4,34.4,29.76,West,270,2.7,-999.0,52,-99.99,,,0.03,Acu-Link.com,2013-05-11 11:24:00,
2013-05-11 07:39:00,51.1,32.6,29.75,North,0,4.2,-999.0,49,-99.99,,,0.03,Acu-Link.com,2013-05-11 11:39:00,
2013-05-11 07:54:00,51.3,31.2,29.76,NW,315,4.7,-999.0,46,-99.99,,,0.03,Acu-Link.com,2013-05-11 11:54:00,
2013-05-11 08:09:00,50.9,32.9,29.76,WNW,292,2.2,-999.0,50,-99.99,,,0.03,Acu-Link.com,2013-05-11 12:09:00,
2013-05-11 08:24:00,50.9,35.8,29.76,NW,315,1.7,-999.0,56,-99.99,,,0.03,Acu-Link.com,2013-05-11 12:24:00,
2013-05-11 08:39:00,50.7,38.2,29.77,NE,45,2.2,-999.0,62,-99.99,,,0.03,Acu-Link.com,2013-05-11 12:39:00,
2013-05-11 08:54:00,50.7,40.1,29.76,East,90,4.7,-999.0,67,-99.99,,,0.03,Acu-Link.com,2013-05-11 12:54:00,
2013-05-11 09:10:00,50.9,41.1,29.76,WNW,292,3.2,-999.0,69,-99.99,,,0.03,Acu-Link.com,2013-05-11 13:10:00,
2013-05-11 09:25:00,50.7,42.4,29.77,North,0,5.3,-999.0,73,-99.99,,,0.03,Acu-Link.com,2013-05-11 13:25:00,
2013-05-11 09:40:00,51.4,44.8,29.77,West,270,1.7,-999.0,78,-99.99,,,0.03,Acu-Link.com,2013-05-11 13:40:00,
2013-05-11 09:55:00,52.0,48.3,29.77,NE,45,1.7,-999.0,87,-99.99,,,0.03,Acu-Link.com,2013-05-11 13:55:00,
2013-05-11 10:10:00,51.8,49.6,29.77,WNW,292,4.2,-999.0,92,-99.99,,,0.03,Acu-Link.com,2013-05-11 14:10:00,
2013-05-11 10:25:00,52.0,50.0,29.78,NNW,337,1.1,-999.0,93,-99.99,,,0.03,Acu-Link.com,2013-05-11 14:25:00,
2013-05-11 10:40:00,51.6,49.6,29.78,WNW,292,2.7,-999.0,93,-99.99,,,0.03,Acu-Link.com,2013-05-11 14:40:00,
2013-05-11 10:55:00,52.3,50.6,29.79,WNW,292,2.2,-999.0,94,-99.99,,,0.03,Acu-Link.com,2013-05-11 14:55:00,
2013-05-11 11:10:00,52.5,50.2,29.79,WSW,247,1.7,-999.0,92,-99.99,,,0.03,Acu-Link.com,2013-05-11 15:10:00,
2013-05-11 11:26:00,52.3,50.3,29.78,West,270,4.2,-999.0,93,-99.99,,,0.03,Acu-Link.com,2013-05-11 15:26:00,
2013-05-11 11:41:00,52.7,50.7,29.77,NNE,22,3.2,-999.0,93,-99.99,,,0.03,Acu-Link.com,2013-05-11 15:41:00,
2013-05-11 11:56:00,53.4,51.1,29.78,West,270,4.7,-999.0,92,-99.99,,,0.03,Acu-Link.com,2013-05-11 15:56:00,
2013-05-11 12:11:00,53.1,50.5,29.77,West,270,3.2,-999.0,91,-99.99,,,0.03,Acu-Link.com,2013-05-11 16:11:00,
2013-05-11 12:26:00,53.8,51.5,29.77,West,270,2.7,-999.0,92,-99.99,,,0.03,Acu-Link.com,2013-05-11 16:26:00,
2013-05-11 12:41:00,54.0,52.0,29.78,NNW,337,3.7,-999.0,93,-99.99,,,0.03,Acu-Link.com,2013-05-11 16:41:00,
2013-05-11 12:56:00,53.8,50.9,29.78,SSW,202,6.3,-999.0,90,-99.99,,,0.03,Acu-Link.com,2013-05-11 16:56:00,
2013-05-11 13:11:00,54.0,51.1,29.78,West,270,5.3,-999.0,90,-99.99,,,0.03,Acu-Link.com,2013-05-11 17:11:00,
2013-05-11 13:26:00,54.5,51.3,29.77,NNE,22,4.7,-999.0,89,-99.99,,,0.03,Acu-Link.com,2013-05-11 17:26:00,
2013-05-11 13:42:00,54.5,51.0,29.77,NW,315,4.7,-999.0,88,-99.99,,,0.03,Acu-Link.com,2013-05-11 17:42:00,
2013-05-11 13:57:00,54.5,51.3,29.77,West,270,3.7,-999.0,89,-99.99,,,0.03,Acu-Link.com,2013-05-11 17:57:00,
2013-05-11 14:15:00,55.0,51.8,29.77,West,270,6.3,-999.0,89,-99.99,,,0.03,Acu-Link.com,2013-05-11 18:15:00,
2013-05-11 14:30:00,54.9,51.7,29.77,West,270,2.2,-999.0,89,-99.99,,,0.03,Acu-Link.com,2013-05-11 18:30:00,
2013-05-11 14:45:00,55.0,52.1,29.78,SSW,202,6.3,-999.0,90,-99.99,,,0.03,Acu-Link.com,2013-05-11 18:45:00,
2013-05-11 15:00:00,55.4,52.2,29.77,SW,225,4.7,-999.0,89,-99.99,,,0.03,Acu-Link.com,2013-05-11 19:00:00,
2013-05-11 15:15:00,56.1,52.3,29.77,WNW,292,6.3,-999.0,87,-99.99,,,0.03,Acu-Link.com,2013-05-11 19:15:00,
2013-05-11 15:30:00,57.0,52.5,29.76,West,270,5.3,-999.0,85,-99.99,,,0.03,Acu-Link.com,2013-05-11 19:30:00,
2013-05-11 15:46:00,56.8,53.0,29.76,NNW,337,3.2,-999.0,87,-99.99,,,0.03,Acu-Link.com,2013-05-11 19:46:00,
2013-05-11 16:01:00,56.3,52.8,29.76,WSW,247,4.7,-999.0,88,-99.99,,,0.03,Acu-Link.com,2013-05-11 20:01:00,
2013-05-11 16:16:00,55.9,52.7,29.76,WSW,247,5.8,-999.0,89,-99.99,,,0.03,Acu-Link.com,2013-05-11 20:16:00,
2013-05-11 16:31:00,55.8,52.6,29.75,WSW,247,8.3,-999.0,89,-99.99,,,0.03,Acu-Link.com,2013-05-11 20:31:00,
2013-05-11 16:46:00,56.1,52.6,29.75,SSW,202,6.3,-999.0,88,-99.99,,,0.03,Acu-Link.com,2013-05-11 20:46:00,
2013-05-11 17:01:00,56.8,52.7,29.75,West,270,7.8,-999.0,86,-99.99,,,0.03,Acu-Link.com,2013-05-11 21:01:00,
2013-05-11 17:21:00,57.0,52.5,29.76,West,270,8.3,-999.0,85,-99.99,,,0.03,Acu-Link.com,2013-05-11 21:21:00,
2013-05-11 17:36:00,57.0,52.2,29.75,SW,225,7.3,-999.0,84,-99.99,,,0.03,Acu-Link.com,2013-05-11 21:36:00,
2013-05-11 17:51:00,57.4,52.9,29.76,WSW,247,8.3,-999.0,85,-99.99,,,0.03,Acu-Link.com,2013-05-11 21:51:00,
2013-05-11 18:06:00,56.5,52.4,29.76,West,270,3.7,-999.0,86,-99.99,,,0.03,Acu-Link.com,2013-05-11 22:06:00,
2013-05-11 18:21:00,57.6,52.5,29.76,SW,225,6.8,-999.0,83,-99.99,,,0.03,Acu-Link.com,2013-05-11 22:21:00,
2013-05-11 18:36:00,58.1,52.6,29.76,West,270,5.3,-999.0,82,-99.99,,,0.03,Acu-Link.com,2013-05-11 22:36:00,
2013-05-11 18:52:00,59.0,52.8,29.76,West,270,6.3,-999.0,80,-99.99,,,0.03,Acu-Link.com,2013-05-11 22:52:00,
2013-05-11 19:07:00,57.2,52.1,29.76,West,270,6.8,-999.0,83,-99.99,,,0.03,Acu-Link.com,2013-05-11 23:07:00,
2013-05-11 19:22:00,57.0,51.9,29.75,WSW,247,3.2,-999.0,83,-99.99,,,0.03,Acu-Link.com,2013-05-11 23:22:00,
2013-05-11 19:37:00,55.8,51.0,29.75,SW,225,4.2,-999.0,84,-99.99,,,0.03,Acu-Link.com,2013-05-11 23:37:00,
2013-05-11 19:52:00,55.8,51.7,29.75,SSW,202,6.8,-999.0,86,-99.99,,,0.03,Acu-Link.com,2013-05-11 23:52:00,
2013-05-11 20:07:00,55.8,51.7,29.74,South,180,3.7,-999.0,86,-99.99,,,0.03,Acu-Link.com,2013-05-12 00:07:00,
2013-05-11 20:22:00,55.0,51.5,29.75,SW,225,5.3,-999.0,88,-99.99,,,0.03,Acu-Link.com,2013-05-12 00:22:00,
2013-05-11 20:38:00,54.1,51.2,29.75,West,270,5.8,-999.0,90,-99.99,,,0.03,Acu-Link.com,2013-05-12 00:38:00,
2013-05-11 20:53:00,53.4,51.1,29.75,SSE,157,2.2,-999.0,92,-99.99,,,0.03,Acu-Link.com,2013-05-12 00:53:00,
2013-05-11 21:08:00,52.9,50.9,29.75,SSW,202,2.2,-999.0,93,-99.99,,,0.03,Acu-Link.com,2013-05-12 01:08:00,
2013-05-11 21:23:00,53.1,51.1,29.77,South,180,5.3,-999.0,93,-99.99,,,0.03,Acu-Link.com,2013-05-12 01:23:00,
2013-05-11 21:38:00,50.0,48.1,29.80,North,0,9.9,-999.0,93,-99.99,,,0.03,Acu-Link.com,2013-05-12 01:38:00,
2013-05-11 21:53:00,47.3,45.9,29.81,WNW,292,5.8,-999.0,95,-99.99,,,0.04,Acu-Link.com,2013-05-12 01:53:00,
2013-05-11 22:08:00,46.2,44.0,29.83,WNW,292,5.3,-999.0,92,-99.99,,,0.04,Acu-Link.com,2013-05-12 02:08:00,
2013-05-11 22:23:00,45.3,42.5,29.83,North,0,5.3,-999.0,90,-99.99,,,0.05,Acu-Link.com,2013-05-12 02:23:00,
2013-05-11 22:39:00,45.1,43.2,29.83,WNW,292,2.2,-999.0,93,-99.99,,,0.05,Acu-Link.com,2013-05-12 02:39:00,
2013-05-11 22:54:00,45.1,43.2,29.84,North,0,2.7,-999.0,93,-99.99,,,0.05,Acu-Link.com,2013-05-12 02:54:00,
2013-05-11 23:09:00,45.5,43.0,29.84,NNE,22,5.3,-999.0,91,-99.99,,,0.05,Acu-Link.com,2013-05-12 03:09:00,
2013-05-11 23:24:00,45.7,42.4,29.86,East,90,2.7,-999.0,88,-99.99,,,0.05,Acu-Link.com,2013-05-12 03:24:00,
2013-05-11 23:39:00,45.5,42.2,29.86,North,0,2.7,-999.0,88,-99.99,,,0.05,Acu-Link.com,2013-05-12 03:39:00,
2013-05-11 23:54:00,45.3,42.0,29.86,West,270,2.7,-999.0,88,-99.99,,,0.05,Acu-Link.com,2013-05-12 03:54:00,